Regional Weather Roundup
Issued by NWS

Home | Current Version | Previous Version | Text Only | Print | Product List | Glossary Off
Versions: 1 2 3 4 5 6 7 8 9 10 11 12 13 14 15 16 17 18 19 20 21 22 23 24 25 26 27 28 29 30 31 32 33 34 35 36 37 38 39 40 41 42 43 44 45 46 47 48 49 50

000
ASUS43 KLSX 251459
RWRMO

WEATHER SUMMARY FOR MISSOURI
NATIONAL WEATHER SERVICE SPRINGFIELD MO
1000 AM CDT SAT OCT 25 2014

NOTE: "FAIR" INDICATES FEW OR NO CLOUDS BELOW 12,000 FEET WITH NO
       SIGNIFICANT WEATHER AND/OR OBSTRUCTIONS TO VISIBILITY.
       CURRENT SKY AND/OR WEATHER CONDITIONS ARE NOT AVAILABLE FOR
       CHILLICOTHE AND FARMINGTON.

MOZ001>031-035>038-043-044-053-054-251600-
...NORTHERN AND WESTERN MISSOURI...

CITY           SKY/WX    TMP DP  RH WIND       PRES   REMARKS
KANSAS CTY INT FOG       59  59 100 CALM      30.09R VSB 1/4
KANSAS C DTWN  FOG       58  58 100 CALM      30.07S VSB<1/4
LEE`S SUMMIT     N/A     64  62  93 N3        30.08R FOG
ST JOSEPH      FOG       55  55 100 N7        30.10R VSB 1/4
KIRKSVILLE     SUNNY     65  54  67 N6        30.08R

$$
MOZ066>068-077>081-088>096-101>105-251600-
...SOUTHWEST MISSOURI...

CITY           SKY/WX    TMP DP  RH WIND       PRES   REMARKS
SPRINGFIELD    SUNNY     69  60  73 W9        30.09S
JOPLIN         SUNNY     69  61  75 SW8       30.11R

$$
MOZ032>034-039>042-045>050-055>058-069>072-251600-
...CENTRAL MISSOURI...

CITY           SKY/WX    TMP DP  RH WIND       PRES   REMARKS
COLUMBIA       SUNNY     65  62  90 W3        30.06S
JEFFERSON CITY SUNNY     61  60  97 CALM      30.06F
ROLLA          SUNNY     65  60  84 NW9       30.07R
SEDALIA        CLOUDY    62  60  93 SW6       30.07F FOG
OSAGE BEACH    SUNNY     64  59  82 NW5       30.09R

$$
MOZ051-052-059>065-251600-
...EAST CENTRAL MISSOURI...

CITY           SKY/WX    TMP DP  RH WIND       PRES   REMARKS
ST LOUIS INTL  MOSUNNY   69  62  78 W3        30.05S
SPIRIT OF STL  SUNNY     66  60  81 CALM      30.04S
ST CHARLES     SUNNY     66  60  81 W5        30.03F HAZE

$$
MOZ072>076-082>087-097>100-106>115-251600-
...SOUTH CENTRAL AND SOUTHEAST MISSOURI...

CITY           SKY/WX    TMP DP  RH WIND       PRES   REMARKS
CAPE GIRARDEAU SUNNY     63  58  83 W6        30.06S HAZE
FARMINGTON     SUNNY     68  61  77 NW6       30.09S
POPLAR BLUFF   MOSUNNY   64  57  78 NW5       30.06S
WEST PLAINS    SUNNY     66  60  81 W8        30.11R

$$



USA.gov is the U.S. government's official web portal to all federal, state and local government web resources and services.